Tracking 25710 objects as of 4-Jul-2022
HD Live streaming from Space Station
objects crossing your sky now

USA 313

Track USA 313 now!
10-day predictions


NORAD ID: 47295
Int'l Code: 2020-101B
Perigee: 520.5 km
Apogee: 536.6 km
Inclination: 53.0 °
Period: 95.1 minutes
Semi major axis: 6899 km
RCS: Unknown
Launch date: December 19, 2020
Source: United States (US)
Launch site: AIR FORCE EASTERN TEST RANGE (AFETR)
aabbcc
Your satellite tracking list
Your tracking list is empty




NASA's NSSDC Master Catalog

Two Line Element Set (TLE):
1 47295U 20101B   22183.98786599 0.00002435  00000-0  12887-3 0    04
2 47295  52.9973 169.0489 0011661 194.5524 165.4475 15.14870217    04
Source of the keplerian elements: McCants